Retour au catalogue

STARLINK-36265

ActifCommunicationsVLEO
NORAD 67208·PAYLOAD·🇺🇸 United States

Lancé Dec 17, 2025 depuis Vandenberg Space Force Base

Loading…

Prochains Passages (prochaines 24 heures)

TLE

FraisSource: CelesTrak SupGP

Époque: Sep 14, 2026, 21:43 UTC

1 67208C 25304S   26257.90534722  .00028230  00000+0  23656-2 0  2576
2 67208  70.0012  57.5052 0002818 276.8189 101.3373 14.98320342    14

Suivez STARLINK-36265 en temps réel avec AllMySat

Download on the App Store